This is the latest recevied weather packets stored in our database for station/object PP5FMM-13. If no packets are shown the sender has not sent any weather packets the latest 10 day(s).
| Time | Temp. | Humidity | Pressure | Rain* | Wind** | Luminosity | Snow |
|---|---|---|---|---|---|---|---|
| 1777798531 | 22.78° C | 73% | 1021.7 hPa | - | - | - | - |
| 1777798231 | 22.22° C | 69% | 1021.8 hPa | - | - | - | - |
| 1777797931 | 22.78° C | 73% | 1021.5 hPa | - | - | - | - |
| 1777797632 | 22.22° C | 73% | 1021.6 hPa | - | - | - | - |
| 1777797331 | 22.22° C | 68% | 1021.6 hPa | - | - | - | - |
| 1777797031 | 22.22° C | 73% | 1021.5 hPa | - | - | - | - |
| 1777796732 | 22.22° C | 71% | 1021.3 hPa | - | - | - | - |
| 1777796432 | 22.22° C | 70% | 1021.4 hPa | - | - | - | - |
| 1777796132 | 22.22° C | 70% | 1021.4 hPa | - | - | - | - |
| 1777795831 | 22.22° C | 70% | 1021.3 hPa | - | - | - | - |
| 1777795532 | 22.78° C | 69% | 1021.2 hPa | - | - | - | - |
| 1777795232 | 22.22° C | 70% | 1021.2 hPa | - | - | - | - |
| 1777794932 | 22.78° C | 68% | 1021.1 hPa | - | - | - | - |
| 1777794631 | 22.78° C | 74% | 1021.2 hPa | - | - | - | - |
| 1777794331 | 22.22° C | 74% | 1021 hPa | - | - | - | - |
| 1777794032 | 22.22° C | 75% | 1021 hPa | - | - | - | - |
| 1777793731 | 22.78° C | 68% | 1020.9 hPa | - | - | - | - |
| 1777793432 | 22.78° C | 71% | 1021 hPa | - | - | - | - |
| 1777793131 | 22.78° C | 74% | 1020.9 hPa | - | - | - | - |
| 1777792831 | 22.78° C | 71% | 1020.8 hPa | - | - | - | - |
| 1777792532 | 22.22° C | 72% | 1020.8 hPa | - | - | - | - |
| 1777792232 | 22.22° C | 73% | 1020.7 hPa | - | - | - | - |
| 1777791932 | 22.22° C | 72% | 1020.7 hPa | - | - | - | - |
| 1777791631 | 22.22° C | 73% | 1020.6 hPa | - | - | - | - |
| 1777791331 | 22.22° C | 74% | 1020.6 hPa | - | - | - | - |
* Rain since midnight (hover to see other rain measurements)
** Current wind speed in m/s (hover to see current wind gust speed)